Location: Castelbiague
(43.0361°N, 0.9246°E)
Time: 22:15:00
(UTC+00:00)

USA 215 - Pass Details

Date: 23 October 2021
Orbit: 1099 x 1109 km, 123.0° (Epoch: 20 November)

Event Time Altitude Azimuth Distance (km) Brightness Sun altitude
Exits shadow 21:40:23 17° 326° (NNW) 2,479 5.5 -49.3°
Drops below altitude 10° 21:41:58 10° 317° (NW) 2,964 6.0 -49.5°
Sets 21:44:44 0° 307° (NW) 3,924 6.8 -49.9°
